Change the Weather History Date:

Wednesday, February 20, 2013

  Actual Average Record
Temperature  
Mean Temperature 29 °F 26 °F  
Max Temperature 34 °F 36 °F 53 °F (1982)
Min Temperature 23 °F 16 °F -14 °F (1955)
Degree Days  
Heating Degree Days 36 39  
Month to date heating degree days 803 841  
Since 1 July heating degree days 5187 5504  
Cooling Degree Days 0 0  
Month to date cooling degree days 0 0  
Year to date cooling degree days 0 0  
Moisture  
Dew Point 24 °F    
Average Humidity 82    
Maximum Humidity 92    
Minimum Humidity 72    
Precipitation  
Precipitation T in 0.03 in 0.22 in (1986)
Month to date precipitation T 0.45  
Year to date precipitation 0.31 1.14  
Sea Level Pressure  
Sea Level Pressure 29.76 in    
Wind  
Wind Speed 10 mph (SW)    
Max Wind Speed 18 mph    
Max Gust Speed 22 mph    
Visibility 5 miles    
Events Snow    
T = Trace of Precipitation, MM = Missing Value Source: NWS Daily Summary

Daily Weather History Graph

Daily Weather History Graph

Search for Another Location

Airport or City:

Trip Planner

Search our weather history database for the weather conditions in past years. The results will help you decide how hot, cold, wet, or windy it might be!

Date:

Astronomy

Feb. 20, 2013 Rise Set
Actual Time 7:18 AM MST 6:05 PM MST
Civil Twilight 6:49 AM MST 6:35 PM MST
Nautical Twilight 6:16 AM MST 7:08 PM MST
Astronomical Twilight 5:43 AM MST 7:41 PM MST
Moon 1:25 PM MST (2/20) 3:47 AM MST (2/20)
Length of Visible Light 11h 45m
Length of Day
10h 47m
Waxing Gibbous, 76% of the Moon is Illuminated
Feb 20
Waxing Gibbous
Feb 25
Full
Mar 4
Last Quarter
Mar 11
New
Mar 19
First Quarter

Hourly Weather History & Observations

Time (MST) Temp. Windchill Dew Point Humidity Pressure Visibility Wind Dir Wind Speed Gust Speed Precip Events Conditions
12:53 AM 25.0 °F 14.8 °F 19.9 °F 81% 29.71 in 10.0 mi North 10.4 mph - N/A   Scattered Clouds
1:53 AM 23.0 °F 12.4 °F 19.0 °F 85% 29.72 in 10.0 mi North 10.4 mph - N/A   Overcast
2:53 AM 23.0 °F 13.9 °F 19.0 °F 85% 29.70 in 10.0 mi North 8.1 mph - N/A   Overcast
3:53 AM 23.0 °F 13.1 °F 18.0 °F 81% 29.70 in 10.0 mi North 9.2 mph - N/A   Overcast
4:53 AM 24.1 °F 13.7 °F 18.0 °F 77% 29.70 in 10.0 mi North 10.4 mph - N/A   Overcast
5:53 AM 23.0 °F 13.1 °F 18.0 °F 81% 29.73 in 10.0 mi North 9.2 mph - N/A   Overcast
6:53 AM 24.1 °F 18.2 °F 18.0 °F 77% 29.73 in 10.0 mi North 4.6 mph - N/A   Overcast
7:53 AM 26.1 °F 20.5 °F 19.9 °F 78% 29.75 in 10.0 mi NE 4.6 mph - N/A   Overcast
8:53 AM 27.0 °F 23.0 °F 21.0 °F 78% 29.76 in 10.0 mi North 3.5 mph - 0.00 in Snow Light Snow
8:57 AM 26.6 °F 21.2 °F 19.4 °F 74% 29.68 in 1.5 mi NNE 4.6 mph - 0.00 in Snow Light Snow
9:10 AM 26.6 °F 21.2 °F 21.2 °F 80% 29.68 in 1.0 mi NE 4.6 mph - 0.00 in Snow Light Snow
9:18 AM 26.6 °F 22.6 °F 21.2 °F 80% 29.68 in 4.0 mi ENE 3.5 mph - 0.00 in Snow Light Snow
9:34 AM 28.4 °F 23.3 °F 21.2 °F 74% 29.68 in 9.0 mi ENE 4.6 mph - 0.00 in   Overcast
9:53 AM 30.0 °F 26.5 °F 23.0 °F 75% 29.75 in 10.0 mi NNE 3.5 mph - 0.00 in   Overcast
10:53 AM 30.9 °F 26.2 °F 25.0 °F 79% 29.77 in 10.0 mi North 4.6 mph - N/A   Overcast
11:53 AM 32.0 °F 28.7 °F 25.0 °F 75% 29.77 in 10.0 mi West 3.5 mph - N/A   Mostly Cloudy
12:53 PM 33.1 °F 26.9 °F 26.1 °F 75% 29.76 in 10.0 mi WSW 6.9 mph - N/A   Overcast
1:53 PM 32.0 °F 22.1 °F 28.0 °F 85% 29.77 in 6.0 mi SSW 13.8 mph - N/A   Overcast
2:00 PM 32.0 °F 22.5 °F 28.4 °F 87% 29.69 in 2.5 mi SSW 12.7 mph - 0.00 in Snow Light Snow
2:04 PM 32.0 °F 22.5 °F 28.4 °F 87% 29.69 in 2.5 mi SSW 12.7 mph - 0.00 in Snow Light Snow
2:20 PM 30.2 °F 20.2 °F 28.4 °F 93% 29.69 in 2.0 mi SSW 12.7 mph - 0.00 in Snow Light Snow
2:29 PM 30.2 °F 19.3 °F 26.6 °F 86% 29.69 in 2.0 mi SSW 15.0 mph - 0.00 in Snow Light Snow
2:53 PM 30.0 °F 18.7 °F 26.1 °F 85% 29.78 in 4.0 mi SSW 16.1 mph - 0.00 in   Overcast
3:53 PM 28.9 °F 18.2 °F 26.1 °F 89% 29.80 in 4.0 mi SSW 13.8 mph - 0.00 in   Overcast
4:53 PM 28.9 °F 17.7 °F 25.0 °F 85% 29.81 in 4.0 mi SSW 15.0 mph - N/A   Overcast
5:15 PM 28.4 °F 16.6 °F 24.8 °F 86% 29.72 in 1.8 mi SSW 16.1 mph - 0.00 in Snow Light Snow
5:53 PM 28.9 °F 18.2 °F 25.0 °F 85% 29.82 in 1.5 mi SSW 13.8 mph - 0.00 in Snow Light Snow
6:16 PM 28.4 °F 17.0 °F 24.8 °F 86% 29.74 in 2.5 mi SSW 15.0 mph - 0.00 in Snow Light Snow
6:21 PM 28.4 °F 17.5 °F 26.6 °F 93% 29.74 in 1.8 mi SSW 13.8 mph - 0.00 in Snow Light Snow
6:48 PM 28.4 °F 18.0 °F 24.8 °F 86% 29.74 in 1.8 mi SSW 12.7 mph - 0.00 in Snow Light Snow
6:53 PM 28.0 °F 17.0 °F 25.0 °F 88% 29.84 in 1.5 mi SSW 13.8 mph - 0.00 in Snow Light Snow
7:03 PM 28.4 °F 17.5 °F 24.8 °F 86% 29.75 in 1.2 mi SSW 13.8 mph - 0.00 in Snow Light Snow
7:38 PM 28.4 °F 18.0 °F 24.8 °F 86% 29.76 in 2.5 mi SSW 12.7 mph - 0.00 in Snow Light Snow
7:51 PM 28.4 °F 18.0 °F 24.8 °F 86% 29.76 in 1.2 mi SSW 12.7 mph - 0.00 in Snow Light Snow
7:53 PM 28.0 °F 18.1 °F 25.0 °F 88% 29.85 in 1.5 mi SSW 11.5 mph - 0.00 in Snow Light Snow
8:04 PM 28.4 °F 18.5 °F 24.8 °F 86% 29.76 in 2.5 mi SSW 11.5 mph - 0.00 in Snow Light Snow
8:12 PM 28.4 °F 19.1 °F 24.8 °F 86% 29.76 in 3.0 mi SSW 10.4 mph - 0.00 in Snow Light Snow
8:22 PM 28.4 °F 19.1 °F 24.8 °F 86% 29.76 in 2.5 mi SSW 10.4 mph - 0.00 in Snow Light Snow
8:42 PM 28.4 °F 17.0 °F 24.8 °F 86% 29.76 in 1.5 mi SSW 15.0 mph - 0.00 in Snow Light Snow
8:53 PM 27.0 °F 15.6 °F 24.1 °F 89% 29.86 in 1.8 mi SSW 13.8 mph - 0.00 in Snow Light Snow
9:02 PM 26.6 °F 16.2 °F 24.8 °F 93% 29.77 in 2.0 mi SSW 11.5 mph - 0.00 in Snow Light Snow
9:09 PM 26.6 °F 15.7 °F 24.8 °F 93% 29.77 in 3.0 mi SSW 12.7 mph - 0.00 in Snow Light Snow
9:16 PM 26.6 °F 16.2 °F 24.8 °F 93% 29.77 in 4.0 mi SSW 11.5 mph - 0.00 in Snow Light Snow
9:23 PM 28.4 °F 17.0 °F 24.8 °F 86% 29.77 in 4.0 mi SSW 15.0 mph - 0.00 in Snow Light Snow
9:35 PM 28.4 °F 17.5 °F 24.8 °F 86% 29.77 in 2.5 mi SSW 13.8 mph - 0.00 in Snow Light Snow
9:53 PM 27.0 °F 16.7 °F 24.1 °F 89% 29.86 in 1.0 mi SSW 11.5 mph - 0.00 in Snow Light Snow
10:06 PM 26.6 °F 15.7 °F 24.8 °F 93% 29.78 in 3.0 mi SSW 12.7 mph - 0.00 in Snow Light Snow
10:14 PM 26.6 °F 16.2 °F 23.0 °F 86% 29.78 in 4.0 mi SSW 11.5 mph - 0.00 in Snow Light Snow
10:41 PM 26.6 °F 16.2 °F 23.0 °F 86% 29.79 in 2.5 mi SSW 11.5 mph - 0.00 in Snow Light Snow
10:53 PM 27.0 °F 15.6 °F 23.0 °F 85% 29.87 in 3.0 mi SSW 13.8 mph - 0.00 in Snow Light Snow
11:04 PM 26.6 °F 15.7 °F 23.0 °F 86% 29.79 in 2.5 mi SSW 12.7 mph - 0.00 in Snow Light Snow
11:13 PM 26.6 °F 17.5 °F 23.0 °F 86% 29.80 in 4.0 mi SSW 9.2 mph - 0.00 in Snow Light Snow
11:38 PM 26.6 °F 16.8 °F 23.0 °F 86% 29.80 in 6.0 mi SSW 10.4 mph - 0.00 in Snow Light Snow
11:53 PM 26.1 °F 15.6 °F 23.0 °F 88% 29.87 in 5.0 mi SSW 11.5 mph - 0.00 in Snow Light Snow